Aniak, AK (99557)

11:57 AM AKDT on March 30, 2017 (GMT -0800)
Sparrevohn LRRS | | Change Station

Elev 1585 ft 61.10 °N, 155.57 °W | Updated 2 minutes ago

Mostly Cloudy
Mostly Cloudy
21 °F
Feels Like 10 °F
N
10
Wind Variable Wind from NE

Today
High -- | Low -- °F
--% Chance of Precip.
Yesterday
High -- | Low -- °F
Precip. -- in
Pressure 29.51 in
Visibility 10.0 miles
Clouds Few 12000 ft
Windchill 10 °F
Dew Point 3 °F
Humidity 47%
Rainfall 0.00 in
Snow Depth Not available.
7:51 AM 9:06 PM
Waxing Crescent, 10% visible
METAR PASV 301955Z AUTO 05009KT 10SM FEW120 M06/M16 A2940 RMK AO2 SLP993 T10621159
Pressure 29.51 in
Visibility 10.0 miles
Clouds Few 12000 ft
Windchill 10 °F
Dew Point 3 °F
Humidity 47%
Rainfall 0.00 in
Snow Depth Not available.
7:51 AM 9:06 PM
Waxing Crescent, 10% visible
METAR PASV 301955Z AUTO 05009KT 10SM FEW120 M06/M16 A2940 RMK AO2 SLP993 T10621159

Get Severe Weather Alerts

Thanks for signing up!

Be on the lookout for a verification email in your inbox.

You'll start receiving the daily forecast at 8 AM.

×

10-Day Weather Forecast

Almanac

Astronomy

Mar. 30, 2017 Rise Set
Actual Time
Civil Twilight
Nautical Twilight
Astronomical Twilight
Moon
Length of Visible Light
Length of Day
Tomorrow will be .
, % of the Moon is Illuminated

Today's Extremes

State Highs State Lows

Community

WunderPhotos

Upload Photos

1,962,540 photos uploaded!

WunderBlog® & News

Nearby

Air Quality

  Air Quality AQ Index Pollutant
Not available.

Snow Depth

Station Depth Elevation

Earthquake Activity

City Distance Mag. Time & Date
Minimum magnitude displayed is 2.5.

Earthquake Activity

City Distance Mag. Time & Date
Minimum magnitude displayed is 2.5.

Coastal Water Temperatures

Place Temperature

Stations

Nearby Weather Stations

Station Location Temp. Windchill Dew Point Humidity Wind Precip. Elev Updated Type
                   

Watches & Warnings

There are currently no watches in effect.